Regional Weather Roundup
Issued by NWS Newport/Morehead, NC

Current Version | Previous Version | Graphics & Text | Print | Product List | Glossary Off
Versions: 1 2 3 4 5 6 7 8 9 10 11 12 13 14 15 16 17 18 19 20 21 22 23 24 25 26 27 28 29 30 31 32 33 34 35 36 37 38 39 40 41 42 43 44 45 46 47 48 49 50

000
ASUS42 KMHX 231223
RWRMHX
WEATHER ROUNDUP FOR EASTERN NORTH CAROLINA
NATIONAL WEATHER SERVICE NEWPORT/MOREHEAD CITY NC
800 AM EDT WED AUG 23 2017

NOTE: "FAIR" INDICATES FEW OR NO CLOUDS BELOW 12,000 FEET
WITH NO SIGNIFICANT WEATHER AND/OR OBSTRUCTIONS TO VISIBILITY

NCZ015>017-031-032-045>047-102-103-231300-
NORTH COAST

CITY           SKY/WX    TMP DP  RH WIND       PRES   REMARKS
EDENTON        PTSUNNY   81  76  85 CALM      29.89S
ELIZABETH CITY SUNNY     79  77  94 SW9       29.88S
KITTY HAWK     SUNNY     79  74  82 SW8       29.87F
MANTEO         SUNNY     80  74  83 SW13      29.89F

$$

NCZ045>047-081-094-103-104-231300-
CENTRAL COAST

CITY           SKY/WX    TMP DP  RH WIND       PRES   REMARKS
FRISCO         SUNNY     82  78  88 SW8       29.91F

$$

NCZ095-097-098-100-101-231300-
SOUTHERN COAST

CITY           SKY/WX    TMP DP  RH WIND       PRES   REMARKS
BEAUFORT       CLOUDY    81  77  88 W13G18    29.92S
CEDAR ISLAND   NOT AVBL
JACKSONVILLE   SUNNY     79  76  90 SW7       29.91R
PINEY ISLAND   SUNNY    N/A N/A N/A SW10      29.91F
WILMINGTON     CLOUDY    78  74  87 SW8       29.92F


$$

NCZ011>013-027>030-043-044-078>080-089-090>093-098-231300-
COASTAL PLAIN

CITY           SKY/WX    TMP DP  RH WIND       PRES   REMARKS
AHOSKIE          N/A     76  74  96 S3        29.88S
CLINTON        PTSUNNY   77  77  99 SW3       29.91S
ELIZABETHTOWN  NOT AVBL
GOLDSBORO      PTSUNNY   77  77 100 SW9       29.89S
GREENVILLE     MOSUNNY   77  75  94 SW8       29.91S
HAVELOCK       MOSUNNY   79  75  87 SW9       29.92S
KENANSVILLE    PTSUNNY   77  73  88 SW6       29.91S
KINSTON        PTSUNNY   77  75  94 SW8       29.91S
NEW BERN       MOSUNNY   77  75  93 SW7       29.92R
RICHLANDS      CLOUDY    76  75  97 SW6       29.92R
ROCKY MOUNT    SUNNY     77  76  96 SW8       29.88S
WASHINGTON     MOSUNNY   78  74  88 SW6       29.90S
WHITEVILLE     PTSUNNY   77  74  91 SW6       29.92S

$$

AMZ130-135-150-152-154-156-158-170-250-252-270-ANZ085-086-088-633-658-670-231300-
MARINE OBSERVATIONS

STATION/POSITION TIME  TEMP    WIND        PRES    WAVE   SWELL
                       AIR SEA DIR/SP/G            HT/PER HT/PER
                 (UTC) (F)     (DEG/KT/KT) (MB)    (FT/S) (FT/S)
CHESAPEAKE LIGHT NOT AVBL
64 E VA BEACH    NOT AVBL
DUCK             NOT AVBL
2 E DUCK         NOT AVBL
OREGON INLET     NOT AVBL
13E OREGON INLT  NOT AVBL
HATTERAS CG      NOT AVBL
DIAMOND BUOY     NOT AVBL
CAPE LOOKOUT     NOT AVBL
BEAUFORT LAB     NOT AVBL
30 SE NEW RVR IN NOT AVBL
30 SE NEW RVR IN NOT AVBL
27 SE WRIGHTSVLE NOT AVBL
5 SE WRIGHTSVLE  NOT AVBL
225 S CAPE HAT   NOT AVBL
41 SE CHARLESTON NOT AVBL

$$




USA.gov is the U.S. government's official web portal to all federal, state and local government web resources and services.